ECHOSTAR 23

Last updated on Thu Jul 03 2025 00:02:47 GMT+0000 (Coordinated Universal Time)

1 42070U 17014A 25183.54481455 -.00000050 00000+0 00000+0 0 9995 2 42070 0.0190 22.8733 0002139 76.8510 267.3246 1.00272476 30419
UTC large
Height (km)
Speed (km/s)
/
Latitude / Longitude
Inclination (degrees)
Orbital Period (minutes)
Azimuth
Elevation
Range (km)
Doppler Factor

Next 0 passes for location: London (51.5072 / 0.1276)

Sorry there are no passes over London.